Coolangatta Observation History
Time Wind Speed Temp Pressure Rel. Hum Rain
02/04:30pm N 13-16 kts 20.1°c 1020.5 hPa 63% 0.0mm
02/04:00pm N 13-17 kts 20.5°c 1020.1 hPa 63% 0.0mm
02/03:30pm N 14-17 kts 20.9°c 1020.2 hPa 62% 0.0mm
02/03:00pm N 11-14 kts 21.5°c 1020.2 hPa 54% 0.0mm
02/02:30pm N 10-12 kts 22.4°c 1020.2 hPa 51% 0.0mm
02/02:00pm N 11-15 kts 22.2°c 1020.3 hPa 49% 0.0mm
02/01:30pm N 12-15 kts 21.6°c 1020.4 hPa 55% 0.0mm
02/01:00pm N 12-16 kts 22.7°c 1020.6 hPa 49% 0.0mm
02/12:30pm N 12-15 kts 22.5°c 1020.9 hPa 49% 0.0mm
02/12:00pm NNW 9-13 kts 22.0°c 1021.6 hPa 47% 0.0mm
02/11:30am NNW 8-13 kts 21.2°c 1022.2 hPa 51% 0.0mm
02/11:00am NW 9-11 kts 20.3°c 1022.6 hPa 54% 0.0mm
02/10:30am NW 7-10 kts 20.3°c 1023.0 hPa 60% 0.0mm
02/10:00am NNW 5-8 kts 19.5°c 1023.2 hPa 66% 0.0mm
02/09:30am NNW 5-7 kts 19.1°c 1023.4 hPa 67% 0.0mm
02/09:00am WSW 3-4 kts 16.9°c 1023.4 hPa 84% 0.0mm
02/08:30am SW 3 kts 14.7°c 1023.3 hPa 92% 0.0mm
02/08:00am CALM 0-3 kts 13.9°c 1023.1 hPa 96% 0.0mm
02/07:30am WSW 5-6 kts 12.5°c 1023.0 hPa 96% 0.0mm
02/07:00am CALM 0-3 kts 11.5°c 1022.7 hPa 97% 0.0mm
02/06:30am CALM 0 kts 10.9°c 1022.4 hPa 96% 0.0mm
02/06:00am WSW 4-5 kts 11.3°c 1022.2 hPa 96% 0.0mm
02/05:30am WSW 4-5 kts 10.9°c 1021.8 hPa 95% 0.0mm
02/05:00am WSW 3-5 kts 10.9°c 1021.6 hPa 95% 0.0mm
02/04:30am WSW 4-6 kts 10.8°c 1021.7 hPa 95% 0.0mm
02/04:00am WSW 4-5 kts 10.8°c 1021.4 hPa 95% 0.0mm
02/03:30am WSW 4-5 kts 11.2°c 1021.3 hPa 95% 0.0mm
02/03:00am WSW 4-6 kts 11.6°c 1021.4 hPa 96% 0.0mm
02/02:30am CALM 0 kts 11.5°c 1021.4 hPa 96% 0.0mm
02/02:00am WSW 1-3 kts 11.8°c 1021.7 hPa 94% 0.0mm
02/01:30am CALM 0 kts 11.8°c 1022.0 hPa 94% 0.0mm
02/01:00am WSW 3-4 kts 12.0°c 1022.1 hPa 94% 0.0mm
02/12:30am WSW 3-4 kts 12.2°c 1022.3 hPa 93% 0.0mm
02/12:00am WSW 4-6 kts 12.7°c 1022.6 hPa 94% 0.0mm
Time Wind Speed Temp Pressure Rel. Hum Rain
01/11:30pm WSW 6-7 kts 13.1°c 1022.8 hPa 94% 0.0mm
01/11:00pm WSW 2-5 kts 12.8°c 1022.6 hPa 94% 0.0mm
01/10:30pm WSW 3-4 kts 12.6°c 1022.5 hPa 92% 0.0mm
01/10:00pm CALM 0 kts 13.0°c 1022.7 hPa 92% 0.0mm
01/09:30pm WSW 2-5 kts 13.2°c 1022.9 hPa 92% 0.0mm
01/09:00pm WSW 3-4 kts 13.0°c 1022.9 hPa 90% 0.0mm
01/08:30pm WSW 2-5 kts 13.9°c 1022.8 hPa 90% 0.0mm
01/08:00pm WSW 6-7 kts 14.4°c 1022.6 hPa 90% 0.0mm
01/07:30pm W 5-6 kts 15.1°c 1022.5 hPa 86% 0.0mm
01/07:00pm WSW 4-6 kts 16.0°c 1022.3 hPa 86% 0.0mm
01/06:30pm NW 3-4 kts 16.2°c 1021.9 hPa 83% 0.0mm
01/06:00pm N 4-5 kts 16.6°c 1021.6 hPa 74% 0.0mm
01/05:30pm N 6-8 kts 17.7°c 1021.2 hPa 72% 0.0mm
01/05:00pm N 7-8 kts 18.3°c 1021.0 hPa 69% 0.0mm
01/04:30pm N 6-7 kts 18.7°c 1020.8 hPa 68% 0.0mm
01/04:00pm NE 7-9 kts 18.8°c 1020.5 hPa 66% 0.0mm
01/03:30pm NE 7-9 kts 19.4°c 1020.6 hPa 64% 0.0mm
01/03:00pm ENE 6-9 kts 19.4°c 1021.0 hPa 64% 0.0mm
01/02:30pm ENE 7-9 kts 20.5°c 1020.6 hPa 61% 0.0mm
01/02:00pm ENE 8-10 kts 19.9°c 1020.8 hPa 61% 0.0mm
01/01:30pm ENE 8-11 kts 20.1°c 1021.3 hPa 63% 0.0mm
01/01:00pm NNE 8-10 kts 20.3°c 1021.5 hPa 63% 0.0mm
01/12:30pm NE 8-10 kts 20.5°c 1021.6 hPa 62% 0.0mm
01/12:00pm NE 7-9 kts 20.8°c 1022.1 hPa 58% 0.0mm
01/11:30am ENE 7-9 kts 20.6°c 1022.5 hPa 57% 0.0mm
01/11:00am E 7-10 kts 20.1°c 1023.0 hPa 56% 0.0mm
01/10:30am SSE 5-7 kts 19.8°c 1023.5 hPa 56% 0.0mm
01/10:00am SE 4-6 kts 18.9°c 1023.9 hPa 62% 0.0mm
01/09:30am SSW 4-5 kts 17.8°c 1024.1 hPa 69% 0.0mm
01/09:00am SW 4-5 kts 16.2°c 1024.1 hPa 77% 0.0mm
01/08:30am WSW 5-6 kts 15.4°c 1024.0 hPa 80% 0.0mm
01/08:00am SW 5-6 kts 15.8°c 1023.9 hPa 77% 0.0mm
01/07:30am SW 4-5 kts 14.4°c 1023.8 hPa 84% 0.0mm
01/07:00am SW 7-8 kts 13.7°c 1023.5 hPa 88% 0.0mm
01/06:30am SW 7-8 kts 13.4°c 1023.2 hPa 90% 0.0mm
01/06:00am SW 3-6 kts 12.3°c 1022.8 hPa 90% 0.0mm
01/05:30am CALM 0-4 kts 12.7°c 1022.6 hPa 91% 0.0mm
01/05:00am CALM 0 kts 12.8°c 1022.4 hPa 87% 0.0mm
01/04:30am E 1-4 kts 13.6°c 1022.2 hPa 86% 0.0mm
01/04:00am CALM 0-3 kts 13.5°c 1022.2 hPa 86% 0.0mm
01/03:30am S 3-4 kts 13.9°c 1022.5 hPa 86% 0.0mm
01/03:00am S 4-5 kts 13.8°c 1022.5 hPa 86% 0.0mm
01/02:30am S 3-4 kts 13.8°c 1022.5 hPa 87% 0.0mm
01/02:00am S 4-5 kts 13.8°c 1022.4 hPa 87% 0.0mm
01/01:30am SSW 3-5 kts 13.7°c 1022.6 hPa 86% 0.0mm
01/01:00am SSW 3-4 kts 14.4°c 1022.9 hPa 85% 0.0mm
01/12:30am CALM 0 kts 14.6°c 1023.1 hPa 84% 0.0mm
01/12:00am SW 3-5 kts 14.8°c 1023.2 hPa 83% 0.0mm
Time Wind Speed Temp Pressure Rel. Hum Rain
30/11:30pm SSW 4-5 kts 14.4°c 1023.4 hPa 84% 0.0mm
30/11:00pm SW 4-5 kts 14.9°c 1023.7 hPa 81% 0.0mm
30/10:30pm SW 5-6 kts 14.5°c 1023.7 hPa 84% 0.0mm
30/10:00pm SW 6-7 kts 14.4°c 1023.8 hPa 84% 0.0mm
30/09:30pm SW 5-6 kts 14.1°c 1023.9 hPa 85% 0.0mm
30/09:00pm WSW 5-6 kts 14.3°c 1023.6 hPa 85% 0.0mm
30/08:30pm WSW 4-5 kts 14.0°c 1023.7 hPa 86% 0.0mm
30/08:00pm WSW 4-5 kts 13.6°c 1023.8 hPa 87% 0.0mm
30/07:30pm SW 5-6 kts 13.3°c 1023.7 hPa 87% 0.0mm
30/07:00pm SW 6-8 kts 14.3°c 1023.5 hPa 81% 0.0mm
30/06:30pm SSW 4-5 kts 14.7°c 1023.3 hPa 78% 0.0mm
30/06:00pm SSW 5-6 kts 15.7°c 1023.2 hPa 74% 0.0mm
30/05:30pm S 5-6 kts 15.7°c 1022.8 hPa 73% 0.0mm
30/05:00pm SSE 5-7 kts 16.1°c 1022.5 hPa 69% 0.0mm
30/04:30pm SSE 6-10 kts 18.0°c 1022.3 hPa 63% 0.0mm
30/04:00pm SSE 9-11 kts 19.3°c 1022.4 hPa 58% 0.0mm
30/03:30pm SSE 10-13 kts 18.9°c 1022.5 hPa 57% 0.0mm
30/03:00pm SSE 10-14 kts 20.1°c 1022.3 hPa 57% 0.0mm
30/02:30pm SSE 10-12 kts 19.6°c 1022.3 hPa 52% 0.0mm
30/02:00pm SSE 9-13 kts 20.0°c 1022.7 hPa 51% 0.0mm
30/01:30pm SSE 10-13 kts 19.9°c 1022.7 hPa 51% 0.0mm
30/01:00pm SSE 9-13 kts 20.3°c 1022.9 hPa 57% 0.0mm
30/12:30pm S 10-14 kts 20.1°c 1023.2 hPa 56% 0.0mm
30/12:00pm S 8-12 kts 19.8°c 1023.7 hPa 61% 0.0mm
30/11:30am S 7-10 kts 19.7°c 1024.1 hPa 60% 0.0mm
30/11:00am SSW 7-10 kts 18.9°c 1024.7 hPa 62% 0.0mm
30/10:30am SSW 7-10 kts 18.7°c 1025.0 hPa 61% 0.0mm
30/10:00am SSW 8-11 kts 18.1°c 1025.1 hPa 66% 0.0mm
30/09:30am SSW 8-13 kts 17.5°c 1025.0 hPa 66% 0.0mm
30/09:00am SSW 8-10 kts 16.5°c 1025.1 hPa 70% 0.2mm
30/08:30am SSW 7-11 kts 16.1°c 1025.0 hPa 70% 0.2mm
30/08:00am SSW 7-11 kts 16.1°c 1024.7 hPa 70% 0.2mm
30/07:30am SSW 6-8 kts 14.7°c 1024.5 hPa 76% 0.2mm
30/07:00am SSW 7-9 kts 14.0°c 1024.4 hPa 78% 0.2mm
30/06:30am SSW 7-11 kts 13.7°c 1024.2 hPa 78% 0.2mm
30/06:00am SSW 7-10 kts 14.0°c 1023.7 hPa 78% 0.2mm
30/05:30am SSW 8-12 kts 14.0°c 1023.7 hPa 78% 0.2mm
30/05:00am S 8-11 kts 13.9°c 1023.4 hPa 78% 0.2mm
30/04:30am SSW 6-9 kts 14.1°c 1023.2 hPa 78% 0.2mm
30/04:00am SSW 7-11 kts 13.8°c 1023.3 hPa 79% 0.2mm
30/03:30am SSW 3-9 kts 13.4°c 1023.4 hPa 83% 0.2mm
30/03:00am S 5-7 kts 12.8°c 1023.5 hPa 84% 0.2mm
30/02:30am SSW 4-7 kts 13.2°c 1023.9 hPa 84% 0.2mm
30/02:00am SSE 4-5 kts 11.7°c 1024.1 hPa 88% 0.2mm
30/01:30am SSE 4-5 kts 11.6°c 1024.5 hPa 84% 0.2mm
30/01:00am S 4-6 kts 13.6°c 1024.9 hPa 80% 0.2mm
30/12:30am S 6-10 kts 14.4°c 1025.1 hPa 77% 0.2mm
30/12:00am SW 5-9 kts 14.8°c 1025.0 hPa 75% 0.2mm